STARLINK-1583, 46064

Orbit data source: Space-Track

STARLINK-1583, 46064 is a payload satellite owned by SpaceX/Seattle (US) in LEO that was launched on Fri, 07 Aug 2020 UTC via an FALCON 9 launch vehicle from the Air Force Eastern Test Range (AFETR). Payload-class satellites include a variety of spacecraft equipped with specific instruments for various scientific and technological missions. These include communications satellites like Starlink; space stations such as the ISS; scientific satellites like the Hubble; Earth observation satellites from companies like Planet Labs, Umbra, and HawkEye 360; GPS; miniature CubeSats for education and research; and military/defense satellites.

Loading next visibility...
Identifier
46064, 2020-055AP
Orbit
LEO
Last TLE update
7 hours ago
Origin
Manufacturer
SpaceX/Seattle
Mission
Operational Commercial Communications
Bus & Motor
STARLINK, Unknown motor
Mass
260 kg wet, ~248 kg dry
Launch date (UTC)
2020-08-07 (5 years ago)
Launch vehicle
FALCON 9
Launch site
Air Force Eastern Test Range (AFETR)
Object type
Payload
Rocket body
Debris
Shape & HBR
Box + 1 Pan, 8.86 m
Radar Cross Section
13.562 m², Large (>1 m²)

Expand to show TLE details & history

TLE from 7 hours ago
0 STARLINK-1583
1 46064U 20055AP  25132.95718055  .00002743  00000-0  20292-3 0  9999
2 46064  53.0548  26.6563 0000861  77.3919 282.7166 15.06407669263700
Epoch: 2025-05-12T22:58Z
Definitive object data (Epoch: 2025-05-12T22:58:20.399Z)
Latitude
-0.00004°
Longitude
171.10846°
Altitude
547.936 km
Speed
7.589 km/s
True Right ascension
01h 46m 37s
True Declination
0° 00' 00"
Sunlit
Object was in daylight at TLE epoch
Visualization TLE readout
Latitude
17.65933°
Longitude
-23.98874°
Altitude
547.362 km
Speed
7.591 km/s
Apparent Right ascension
09h 50m 47s
Apparent Declination
-33° 24' 31"
Sunlit
Object is in full shadow
Visualization observer readout
Local Sidereal Time
14:26:51
Azimuth
231.764° WSW
Elevation
-7.125°
Doppler factor
1
Orbital elements
Apogee altitude
548.055 km
Perigee altitude
546.862 km
Semi-major axis
6,925.596 km
Eccentricity
0.0000861
Inclination
53.0548°
RAAN
26.6563°
Arg. of periapsis
77.3919°
True anomaly
282.70698°
Mean anomaly
282.7166°
Eccentric anomaly
282.71179°
Mean motion
3.7658 °/min
BSTAR
0.00020292
Orbital period
95.6 mins
Loading maneuver chart data...
Loading SW <> Apogee altitude chart data...
Loading historical data...
Loading historical data...
Loading historical data...
Loading historical data...
Loading historical data...
Loading historical data...
Loading historical data...

STARLINK-1583 Visibility forecast

Observer location: undefined°, undefined°

Span
Click to sort rows by Start time (UTC) header in descending order
Start Az.
Max El. time (UTC)
Max El. Az.
Max El.
End time (UTC)
End Az.
4 mins2025-05-13 18:14:19.352Z154.231° SSE2025-05-13 18:16:19.352Z120.327° SE15.596°2025-05-13 18:18:19.352Z89.902° E
6 mins2025-05-13 19:52:19.352Z241.877° WSW2025-05-13 19:55:19.352Z348.394° N42.413°2025-05-13 19:58:19.352Z44.237° NE
4 mins2025-05-13 21:33:19.352Z308.307° NW2025-05-13 21:35:19.352Z343.653° N17.607°2025-05-13 21:37:19.352Z17.654° NNE
4 mins2025-05-14 00:55:19.352Z352.794° N2025-05-14 00:56:19.352Z13.577° NNE21.951°2025-05-14 00:59:19.352Z72.009° E
6 mins2025-05-14 02:34:19.352Z300.674° NW2025-05-14 02:36:19.352Z254.214° W42.345°2025-05-14 02:40:19.352Z140.432° SSE
|